This is the latest recevied weather packets stored in our database for station/object SP1BMW-13. If no packets are shown the sender has not sent any weather packets the latest 10 day(s).
| Time | Temp. | Humidity | Pressure | Rain* | Wind** | Luminosity | Snow |
|---|---|---|---|---|---|---|---|
| 1777629681 | 21.11° C | 38% | 1027.3 hPa | 0 mm | 1.79 m/s, 297° | 653 W/m² | - |
| 1777629625 | 21.11° C | 39% | 1027.3 hPa | 0 mm | 0.45 m/s, 270° | 651 W/m² | - |
| 1777629567 | 21.11° C | 38% | 1027.5 hPa | 0 mm | 1.34 m/s, 310° | 650 W/m² | - |
| 1777629502 | 21.11° C | 37% | 1027.4 hPa | 0 mm | 1.79 m/s, 274° | 649 W/m² | - |
| 1777629441 | 20.56° C | 40% | 1027.3 hPa | 0 mm | 1.34 m/s, 287° | 647 W/m² | - |
| 1777629382 | 20.56° C | 38% | 1027.4 hPa | 0 mm | 1.79 m/s, 216° | 646 W/m² | - |
| 1777629321 | 20.56° C | 39% | 1027.4 hPa | 0 mm | 0.89 m/s, 292° | 644 W/m² | - |
| 1777629261 | 20.56° C | 38% | 1027.5 hPa | 0 mm | 1.79 m/s, 283° | 642 W/m² | - |
| 1777629201 | 20.56° C | 39% | 1027.4 hPa | 0 mm | 0.45 m/s, 246° | 640 W/m² | - |
| 1777629141 | 20.56° C | 40% | 1027.4 hPa | 0 mm | 1.79 m/s, 290° | 639 W/m² | - |
| 1777629081 | 20.56° C | 38% | 1027.4 hPa | 0 mm | 4.02 m/s, 277° | 638 W/m² | - |
| 1777629021 | 20.56° C | 39% | 1027.4 hPa | 0 mm | 2.24 m/s, 252° | 636 W/m² | - |
| 1777628962 | 20.56° C | 40% | 1027.3 hPa | 0 mm | 0.89 m/s, 313° | 635 W/m² | - |
| 1777628902 | 20° C | 39% | 1027.3 hPa | 0 mm | 0.89 m/s, 256° | 632 W/m² | - |
| 1777628841 | 20° C | 40% | 1027.5 hPa | 0 mm | 0.89 m/s, 132° | 632 W/m² | - |
| 1777628781 | 20.56° C | 39% | 1027.4 hPa | 0 mm | 0.45 m/s, 317° | 629 W/m² | - |
| 1777628721 | 20.56° C | 39% | 1027.6 hPa | 0 mm | 2.24 m/s, 311° | 628 W/m² | - |
| 1777628661 | 20.56° C | 39% | 1027.6 hPa | 0 mm | 2.24 m/s, 311° | 627 W/m² | - |
| 1777628602 | 20.56° C | 40% | 1027.6 hPa | 0 mm | 0.89 m/s, 285° | 625 W/m² | - |
| 1777628541 | 20.56° C | 40% | 1027.5 hPa | 0 mm | 1.79 m/s, 296° | 623 W/m² | - |
| 1777628481 | 20.56° C | 40% | 1027.5 hPa | 0 mm | 0.89 m/s, 336° | 622 W/m² | - |
| 1777628421 | 20.56° C | 39% | 1027.5 hPa | 0 mm | 1.79 m/s, 247° | 620 W/m² | - |
| 1777628361 | 20.56° C | 40% | 1027.6 hPa | 0 mm | 1.34 m/s, 318° | 619 W/m² | - |
| 1777628301 | 20.56° C | 41% | 1027.5 hPa | 0 mm | 1.34 m/s, 290° | 617 W/m² | - |
| 1777628241 | 20° C | 41% | 1027.6 hPa | 0 mm | 1.79 m/s, 314° | 614 W/m² | - |
* Rain latest hour (hover to see other rain measurements)
** Current wind speed in m/s (hover to see current wind gust speed)